| time (UTC) | temp F | wind direction | speed MPH | gust MPH | rain 1hr in | rain 24hr in | rain mn in | humidity % | barometer mb |
| 20260502170509 | 65 | 12 | 6.0 | 11.0 | 0.00 | 0.00 | 0.00 | 65 | 1014.4 |
| 20260502164007 | 65 | 4 | 3.0 | 10.0 | 0.00 | 0.00 | 0.00 | 63 | 1014.1 |
| 20260502163508 | 65 | 8 | 2.0 | 11.0 | 0.00 | 0.00 | 0.00 | 63 | 1014.1 |
| 20260502163023 | 65 | 69 | 3.0 | 11.0 | 0.00 | 0.00 | 0.00 | 63 | 1014.2 |
| 20260502162508 | 65 | 45 | 4.0 | 12.0 | 0.00 | 0.00 | 0.00 | 63 | 1014.0 |
| 20260502162011 | 65 | 71 | 4.0 | 12.0 | 0.00 | 0.00 | 0.00 | 63 | 1014.1 |
| 20260502160513 | 65 | 27 | 1.0 | 10.0 | 0.00 | 0.00 | 0.00 | 63 | 1014.3 |
| 20260502152009 | 63 | 358 | 4.0 | 10.0 | 0.00 | 0.00 | 0.00 | 65 | 1014.7 |
| 20260502151548 | 63 | 328 | 5.0 | 10.0 | 0.00 | 0.00 | 0.00 | 65 | 1014.7 |
| 20260502151010 | 63 | 345 | 3.0 | 9.0 | 0.00 | 0.00 | 0.00 | 65 | 1014.6 |
| 20260502150512 | 63 | 33 | 4.0 | 11.0 | 0.00 | 0.00 | 0.00 | 65 | 1014.6 |
| 20260502130511 | 64 | 73 | 3.0 | 13.0 | 0.00 | 0.00 | 0.00 | 64 | 1016.2 |
| 20260502123024 | 64 | 22 | 6.0 | 11.0 | 0.00 | 0.00 | 0.00 | 60 | 1016.7 |
| 20260502122003 | 64 | 13 | 6.0 | 16.0 | 0.00 | 0.00 | 0.00 | 60 | 1016.7 |
| 20260502121506 | 64 | 340 | 9.0 | 16.0 | 0.00 | 0.00 | 0.00 | 60 | 1016.7 |
| 20260502121004 | 64 | 356 | 7.0 | 13.0 | 0.00 | 0.00 | 0.00 | 61 | 1016.6 |
| 20260502120503 | 64 | 13 | 8.0 | 15.0 | 0.00 | 0.00 | 0.00 | 61 | 1016.7 |
| 20260502115503 | 63 | 7 | 7.0 | 19.0 | 0.00 | 0.00 | 0.00 | 63 | 1016.7 |
| 20260502115003 | 63 | 358 | 9.0 | 19.0 | 0.00 | 0.00 | 0.00 | 64 | 1016.7 |
| 20260502114003 | 65 | 336 | 10.0 | 17.0 | 0.00 | 0.00 | 0.00 | 63 | 1016.6 |
| 20260502113508 | 66 | 355 | 9.0 | 23.0 | 0.00 | 0.00 | 0.00 | 60 | 1016.6 |
| 20260502113010 | 67 | 339 | 13.0 | 23.0 | 0.00 | 0.00 | 0.00 | 57 | 1016.5 |
| 20260502112008 | 67 | 7 | 5.0 | 14.0 | 0.00 | 0.00 | 0.00 | 55 | 1016.3 |
| 20260502111503 | 67 | 50 | 5.0 | 20.0 | 0.00 | 0.00 | 0.00 | 55 | 1016.2 |
| 20260502111003 | 67 | 29 | 7.0 | 19.0 | 0.00 | 0.00 | 0.00 | 56 | 1016.1 |
| 20260502110503 | 67 | 37 | 5.0 | 19.0 | 0.00 | 0.00 | 0.00 | 55 | 1016.1 |
| 20260502110008 | 67 | 54 | 8.0 | 20.0 | 0.00 | 0.00 | 0.00 | 55 | 1016.1 |
| 20260502105504 | 68 | 77 | 7.0 | 20.0 | 0.00 | 0.00 | 0.00 | 54 | 1016.0 |
| 20260502105004 | 67 | 328 | 6.0 | 19.0 | 0.00 | 0.00 | 0.00 | 54 | 1016.0 |
| 20260502104506 | 67 | 16 | 6.0 | 15.0 | 0.00 | 0.00 | 0.00 | 54 | 1016.0 |
| 20260502104006 | 67 | 145 | 5.0 | 20.0 | 0.00 | 0.00 | 0.00 | 53 | 1016.0 |
| 20260502103506 | 67 | 65 | 5.0 | 20.0 | 0.00 | 0.00 | 0.00 | 53 | 1015.9 |
| 20260502102509 | 67 | 333 | 7.0 | 21.0 | 0.00 | 0.00 | 0.00 | 53 | 1016.0 |
| 20260502102004 | 67 | 70 | 5.0 | 17.0 | 0.00 | 0.00 | 0.00 | 52 | 1016.0 |
| 20260502101007 | 67 | 33 | 5.0 | 14.0 | 0.00 | 0.00 | 0.00 | 51 | 1016.0 |
| 20260502100503 | 67 | 25 | 4.0 | 14.0 | 0.00 | 0.00 | 0.00 | 51 | 1016.2 |
| 20260502091008 | 69 | 68 | 6.0 | 16.0 | 0.00 | 0.00 | 0.00 | 45 | 1016.3 |
| 20260502090511 | 69 | 330 | 3.0 | 15.0 | 0.00 | 0.00 | 0.00 | 45 | 1016.4 |
| 20260502071511 | 69 | 59 | 3.0 | 11.0 | 0.00 | 0.00 | 0.00 | 48 | 1016.5 |
| 20260502071009 | 69 | 27 | 4.0 | 9.0 | 0.00 | 0.00 | 0.00 | 48 | 1016.4 |
| 20260502070510 | 69 | 24 | 2.0 | 11.0 | 0.00 | 0.00 | 0.00 | 49 | 1016.4 |
| 20260502070036 | 69 | 27 | 4.0 | 14.0 | 0.00 | 0.00 | 0.00 | 48 | 1016.5 |
| 20260502065510 | 69 | 37 | 2.0 | 14.0 | 0.00 | 0.00 | 0.00 | 49 | 1016.4 |
| 20260502065010 | 69 | 64 | 4.0 | 14.0 | 0.00 | 0.00 | 0.00 | 50 | 1016.5 |
| 20260502064520 | 70 | 46 | 2.0 | 9.0 | 0.00 | 0.00 | 0.00 | 50 | 1016.4 |
| 20260502064008 | 70 | 14 | 3.0 | 12.0 | 0.00 | 0.00 | 0.00 | 50 | 1016.3 |
| 20260502063507 | 70 | 56 | 5.0 | 12.0 | 0.00 | 0.00 | 0.00 | 50 | 1016.3 |
| 20260502063035 | 70 | 27 | 1.0 | 9.0 | 0.00 | 0.00 | 0.00 | 50 | 1016.2 |
| 20260502062509 | 71 | 76 | 2.0 | 18.0 | 0.00 | 0.00 | 0.00 | 50 | 1016.3 |
| 20260502062015 | 71 | 9 | 2.0 | 19.0 | 0.00 | 0.00 | 0.00 | 50 | 1016.2 |
| 20260502061010 | 71 | 72 | 4.0 | 16.0 | 0.00 | 0.00 | 0.00 | 49 | 1016.1 |
| 20260502060507 | 70 | 68 | 4.0 | 16.0 | 0.00 | 0.00 | 0.00 | 49 | 1016.1 |
| 20260502060018 | 71 | 106 | 5.0 | 12.0 | 0.00 | 0.00 | 0.00 | 49 | 1016.1 |
| 20260502055509 | 71 | 139 | 1.0 | 10.0 | 0.00 | 0.00 | 0.00 | 51 | 1016.2 |
| 20260502055008 | 71 | 18 | 4.0 | 9.0 | 0.00 | 0.00 | 0.00 | 51 | 1016.3 |
| 20260502054529 | 71 | 29 | 2.0 | 15.0 | 0.00 | 0.00 | 0.00 | 51 | 1016.4 |
| 20260502054010 | 71 | 36 | 7.0 | 15.0 | 0.00 | 0.00 | 0.00 | 50 | 1016.5 |
| 20260502053508 | 70 | 76 | 4.0 | 14.0 | 0.00 | 0.00 | 0.00 | 51 | 1016.6 |
| 20260502053016 | 70 | 85 | 6.0 | 14.0 | 0.00 | 0.00 | 0.00 | 51 | 1016.6 |
| 20260502052508 | 70 | 347 | 4.0 | 13.0 | 0.00 | 0.00 | 0.00 | 52 | 1016.7 |
| 20260502052011 | 70 | 340 | 6.0 | 13.0 | 0.00 | 0.00 | 0.00 | 49 | 1016.7 |
| 20260502051526 | 71 | 12 | 3.0 | 17.0 | 0.00 | 0.00 | 0.00 | 50 | 1016.8 |
| 20260502051013 | 72 | 8 | 5.0 | 17.0 | 0.00 | 0.00 | 0.00 | 49 | 1016.7 |
| 20260502050513 | 72 | 19 | 7.0 | 19.0 | 0.00 | 0.00 | 0.00 | 47 | 1016.8 |
| 20260502050036 | 73 | 45 | 5.0 | 27.0 | 0.00 | 0.00 | 0.00 | 46 | 1016.7 |
| 20260502045509 | 73 | 1 | 10.0 | 27.0 | 0.00 | 0.00 | 0.00 | 45 | 1016.7 |
| 20260502045008 | 73 | 9 | 5.0 | 20.0 | 0.00 | 0.00 | 0.00 | 47 | 1016.9 |
| 20260502044517 | 73 | 50 | 5.0 | 23.0 | 0.00 | 0.00 | 0.00 | 46 | 1017.0 |
| 20260502044008 | 73 | 21 | 10.0 | 22.0 | 0.00 | 0.00 | 0.00 | 46 | 1017.0 |
| 20260502043507 | 72 | 31 | 6.0 | 24.0 | 0.00 | 0.00 | 0.00 | 49 | 1017.1 |
| 20260502043027 | 72 | 2 | 12.0 | 24.0 | 0.00 | 0.00 | 0.00 | 48 | 1017.0 |
| 20260502042510 | 72 | 14 | 9.0 | 24.0 | 0.00 | 0.00 | 0.00 | 46 | 1017.1 |
| 20260502042012 | 72 | 25 | 14.0 | 24.0 | 0.00 | 0.00 | 0.00 | 47 | 1017.2 |
| 20260502041527 | 72 | 356 | 9.0 | 21.0 | 0.00 | 0.00 | 0.00 | 48 | 1017.3 |
| 20260502041008 | 72 | 18 | 12.0 | 21.0 | 0.00 | 0.00 | 0.00 | 49 | 1017.3 |
| 20260502040512 | 72 | 9 | 12.0 | 21.0 | 0.00 | 0.00 | 0.00 | 49 | 1017.4 |
| 20260502040023 | 71 | 353 | 9.0 | 23.0 | 0.00 | 0.00 | 0.00 | 51 | 1017.4 |
| 20260502035509 | 71 | 8 | 12.0 | 23.0 | 0.00 | 0.00 | 0.00 | 49 | 1017.4 |
| 20260502035014 | 71 | 15 | 12.0 | 26.0 | 0.00 | 0.00 | 0.00 | 51 | 1017.4 |
| 20260502034522 | 70 | 348 | 12.0 | 26.0 | 0.00 | 0.00 | 0.00 | 50 | 1017.4 |
| 20260502033512 | 70 | 320 | 9.0 | 24.0 | 0.00 | 0.00 | 0.00 | 50 | 1017.5 |
| 20260502033018 | 70 | 50 | 9.0 | 24.0 | 0.00 | 0.00 | 0.00 | 50 | 1017.5 |
| 20260502032507 | 71 | 4 | 12.0 | 23.0 | 0.00 | 0.00 | 0.00 | 49 | 1017.6 |
| 20260502032011 | 71 | 347 | 12.0 | 30.0 | 0.00 | 0.00 | 0.00 | 50 | 1017.6 |
| 20260502031516 | 70 | 360 | 8.0 | 30.0 | 0.00 | 0.00 | 0.00 | 51 | 1017.7 |
| 20260502031011 | 70 | 14 | 11.0 | 24.0 | 0.00 | 0.00 | 0.00 | 51 | 1017.8 |
| 20260502030511 | 70 | 334 | 10.0 | 24.0 | 0.00 | 0.00 | 0.00 | 51 | 1017.8 |
| 20260502030013 | 70 | 360 | 11.0 | 22.0 | 0.00 | 0.00 | 0.00 | 50 | 1017.8 |
| 20260502025509 | 71 | 341 | 6.0 | 26.0 | 0.00 | 0.00 | 0.00 | 49 | 1017.9 |
| 20260502025009 | 72 | 307 | 12.0 | 26.0 | 0.00 | 0.00 | 0.00 | 48 | 1018.0 |
| 20260502024517 | 72 | 29 | 10.0 | 24.0 | 0.00 | 0.00 | 0.00 | 48 | 1017.9 |
| 20260502024007 | 72 | 23 | 13.0 | 22.0 | 0.00 | 0.00 | 0.00 | 48 | 1018.0 |
| 20260502023508 | 72 | 26 | 9.0 | 19.0 | 0.00 | 0.00 | 0.00 | 47 | 1018.0 |
| 20260502023014 | 72 | 313 | 10.0 | 21.0 | 0.00 | 0.00 | 0.00 | 47 | 1018.2 |
| 20260502022507 | 72 | 348 | 12.0 | 21.0 | 0.00 | 0.00 | 0.00 | 50 | 1018.4 |
| 20260502022011 | 72 | 17 | 10.0 | 21.0 | 0.00 | 0.00 | 0.00 | 51 | 1018.5 |
| 20260502021522 | 70 | 9 | 14.0 | 21.0 | 0.00 | 0.00 | 0.00 | 50 | 1018.6 |
| 20260502020509 | 70 | 349 | 8.0 | 20.0 | 0.00 | 0.00 | 0.00 | 51 | 1018.9 |
| 20260502020016 | 71 | 22 | 11.0 | 18.0 | 0.00 | 0.00 | 0.00 | 50 | 1018.9 |
| 20260502015507 | 71 | 56 | 8.0 | 16.0 | 0.00 | 0.00 | 0.00 | 51 | 1019.1 |
| 20260502015005 | 70 | 341 | 9.0 | 16.0 | 0.00 | 0.00 | 0.00 | 55 | 1019.3 |
| 20260502014516 | 70 | 337 | 7.0 | 13.0 | 0.00 | 0.00 | 0.00 | 55 | 1019.5 |
| 20260502014005 | 69 | 343 | 5.0 | 13.0 | 0.00 | 0.00 | 0.00 | 57 | 1019.6 |
| 20260502013507 | 68 | 348 | 3.0 | 11.0 | 0.00 | 0.00 | 0.00 | 56 | 1019.6 |
| 20260502013016 | 68 | 352 | 4.0 | 13.0 | 0.00 | 0.00 | 0.00 | 58 | 1019.8 |
| 20260502012507 | 67 | 5 | 6.0 | 13.0 | 0.00 | 0.00 | 0.00 | 58 | 1019.8 |
| 20260502012007 | 67 | 26 | 4.0 | 11.0 | 0.00 | 0.00 | 0.00 | 59 | 1019.9 |
| 20260502005508 | 66 | 11 | 3.0 | 10.0 | 0.00 | 0.00 | 0.00 | 58 | 1020.3 |
| 20260502005008 | 66 | 48 | 3.0 | 10.0 | 0.00 | 0.00 | 0.00 | 59 | 1020.4 |
| 20260502004520 | 66 | 27 | 3.0 | 10.0 | 0.00 | 0.00 | 0.00 | 59 | 1020.5 |
| 20260502003502 | 66 | 348 | 3.0 | 15.0 | 0.00 | 0.00 | 0.00 | 58 | 1020.6 |
| 20260502003009 | 66 | 52 | 4.0 | 15.0 | 0.00 | 0.00 | 0.00 | 57 | 1020.6 |
| 20260502002503 | 66 | 8 | 7.0 | 14.0 | 0.00 | 0.00 | 0.00 | 56 | 1020.6 |
| 20260502002003 | 66 | 76 | 5.0 | 14.0 | 0.00 | 0.00 | 0.00 | 58 | 1020.5 |
| 20260502001504 | 66 | 22 | 2.0 | 5.0 | 0.00 | 0.00 | 0.00 | 58 | 1020.6 |
| 20260502001004 | 66 | 32 | 1.0 | 8.0 | 0.00 | 0.00 | 0.00 | 58 | 1020.6 |
| 20260502000503 | 66 | 59 | 1.0 | 8.0 | 0.00 | 0.00 | 0.00 | 58 | 1020.6 |
| 20260502000006 | 66 | 93 | 2.0 | 6.0 | 0.00 | 0.00 | 0.00 | 58 | 1020.7 |
| 20260501235504 | 66 | 33 | 2.0 | 10.0 | 0.00 | 0.00 | 0.00 | 58 | 1020.6 |
| 20260501235004 | 65 | 333 | 3.0 | 10.0 | 0.00 | 0.00 | 0.00 | 58 | 1020.6 |
| 20260501234505 | 65 | 33 | 0.0 | 8.0 | 0.00 | 0.00 | 0.00 | 59 | 1020.6 |
| 20260501234003 | 65 | 30 | 1.0 | 7.0 | 0.00 | 0.00 | 0.00 | 58 | 1020.7 |
| 20260501233503 | 65 | 345 | 2.0 | 6.0 | 0.00 | 0.00 | 0.00 | 57 | 1020.7 |
| 20260501233005 | 64 | 20 | 0.0 | 9.0 | 0.00 | 0.00 | 0.00 | 58 | 1020.6 |
| 20260501232508 | 64 | 47 | 2.0 | 10.0 | 0.00 | 0.00 | 0.00 | 59 | 1020.8 |
| 20260501232002 | 64 | 148 | 3.0 | 10.0 | 0.00 | 0.00 | 0.00 | 58 | 1020.8 |
| 20260501231503 | 64 | 77 | 2.0 | 9.0 | 0.00 | 0.00 | 0.00 | 58 | 1020.8 |
| 20260501230502 | 64 | 18 | 3.0 | 11.0 | 0.00 | 0.00 | 0.00 | 58 | 1020.8 |
| 20260501230005 | 64 | 77 | 1.0 | 11.0 | 0.00 | 0.00 | 0.00 | 59 | 1020.8 |
| 20260501225504 | 64 | 40 | 5.0 | 11.0 | 0.00 | 0.00 | 0.00 | 58 | 1020.9 |
| 20260501225006 | 64 | 31 | 2.0 | 14.0 | 0.00 | 0.00 | 0.00 | 58 | 1021.0 |
| 20260501224504 | 64 | 39 | 5.0 | 13.0 | 0.00 | 0.00 | 0.00 | 59 | 1020.9 |
| 20260501224004 | 64 | 4 | 3.0 | 11.0 | 0.00 | 0.00 | 0.00 | 58 | 1020.8 |
| 20260501223504 | 64 | 21 | 3.0 | 11.0 | 0.00 | 0.00 | 0.00 | 59 | 1020.9 |
| 20260501223008 | 63 | 24 | 1.0 | 11.0 | 0.00 | 0.00 | 0.00 | 60 | 1020.8 |
| 20260501222503 | 63 | 52 | 5.0 | 12.0 | 0.00 | 0.00 | 0.00 | 59 | 1020.8 |
| 20260501222008 | 63 | 27 | 3.0 | 12.0 | 0.00 | 0.00 | 0.00 | 60 | 1020.8 |
| 20260501221513 | 63 | 22 | 4.0 | 11.0 | 0.00 | 0.00 | 0.00 | 59 | 1020.8 |
| 20260501221005 | 63 | 46 | 2.0 | 9.0 | 0.00 | 0.00 | 0.00 | 60 | 1020.7 |
| 20260501220508 | 63 | 27 | 2.0 | 6.0 | 0.00 | 0.00 | 0.00 | 60 | 1020.6 |
| 20260501220021 | 63 | 344 | 1.0 | 9.0 | 0.00 | 0.00 | 0.00 | 60 | 1020.6 |
| 20260501215512 | 63 | 10 | 4.0 | 10.0 | 0.00 | 0.00 | 0.00 | 59 | 1020.6 |
| 20260501215004 | 63 | 25 | 3.0 | 10.0 | 0.00 | 0.00 | 0.00 | 58 | 1020.6 |
| 20260501214502 | 63 | 44 | 2.0 | 9.0 | 0.00 | 0.00 | 0.00 | 58 | 1020.5 |
| 20260501214007 | 63 | 64 | 4.0 | 9.0 | 0.00 | 0.00 | 0.00 | 58 | 1020.5 |
| 20260501213506 | 63 | 17 | 3.0 | 9.0 | 0.00 | 0.00 | 0.00 | 57 | 1020.5 |
| 20260501213004 | 64 | 38 | 2.0 | 9.0 | 0.00 | 0.00 | 0.00 | 57 | 1020.5 |
| 20260501212506 | 64 | 49 | 3.0 | 10.0 | 0.00 | 0.00 | 0.00 | 57 | 1020.4 |
| 20260501212005 | 64 | 109 | 4.0 | 15.0 | 0.00 | 0.00 | 0.00 | 56 | 1020.4 |
| 20260501211517 | 64 | 72 | 5.0 | 14.0 | 0.00 | 0.00 | 0.00 | 56 | 1020.3 |
| 20260501211009 | 64 | 360 | 5.0 | 14.0 | 0.00 | 0.00 | 0.00 | 56 | 1020.2 |
| 20260501210505 | 64 | 47 | 4.0 | 16.0 | 0.00 | 0.00 | 0.00 | 55 | 1020.2 |
| 20260501210014 | 64 | 54 | 4.0 | 16.0 | 0.00 | 0.00 | 0.00 | 55 | 1020.2 |
| 20260501205507 | 64 | 30 | 4.0 | 12.0 | 0.00 | 0.00 | 0.00 | 56 | 1020.1 |
| 20260501205008 | 64 | 61 | 2.0 | 10.0 | 0.00 | 0.00 | 0.00 | 56 | 1020.2 |
| 20260501204516 | 63 | 66 | 0.0 | 11.0 | 0.00 | 0.00 | 0.00 | 57 | 1020.2 |
| 20260501204006 | 63 | 42 | 5.0 | 11.0 | 0.00 | 0.00 | 0.00 | 56 | 1020.1 |
| 20260501203508 | 63 | 3 | 1.0 | 5.0 | 0.00 | 0.00 | 0.00 | 57 | 1020.2 |
| 20260501202504 | 63 | 60 | 3.0 | 12.0 | 0.00 | 0.00 | 0.00 | 58 | 1020.2 |
| 20260501202006 | 62 | 350 | 2.0 | 6.0 | 0.00 | 0.00 | 0.00 | 58 | 1020.2 |
| 20260501201005 | 61 | 333 | 0.0 | 5.0 | 0.00 | 0.00 | 0.00 | 60 | 1020.4 |
| 20260501200507 | 61 | 70 | 0.0 | 5.0 | 0.00 | 0.00 | 0.00 | 60 | 1020.3 |
| 20260501200011 | 61 | 26 | 0.0 | 6.0 | 0.00 | 0.00 | 0.00 | 61 | 1020.3 |
| 20260501195507 | 60 | 18 | 1.0 | 6.0 | 0.00 | 0.00 | 0.00 | 62 | 1020.3 |
| 20260501194504 | 60 | 61 | 0.0 | 4.0 | 0.00 | 0.00 | 0.00 | 63 | 1020.4 |
| 20260501194008 | 60 | 35 | 0.0 | 5.0 | 0.00 | 0.00 | 0.00 | 63 | 1020.4 |
| 20260501193503 | 60 | 4 | 0.0 | 5.0 | 0.00 | 0.00 | 0.00 | 63 | 1020.4 |
| 20260501193021 | 61 | 18 | 0.0 | 5.0 | 0.00 | 0.00 | 0.00 | 62 | 1020.4 |
| 20260501192508 | 60 | 52 | 0.0 | 5.0 | 0.00 | 0.00 | 0.00 | 62 | 1020.4 |
| 20260501192004 | 60 | 38 | 0.0 | 3.0 | 0.00 | 0.00 | 0.00 | 62 | 1020.4 |
| 20260501191520 | 60 | 20 | 0.0 | 2.0 | 0.00 | 0.00 | 0.00 | 62 | 1020.4 |
| 20260501185510 | 60 | 345 | 0.0 | 4.0 | 0.00 | 0.00 | 0.00 | 62 | 1020.4 |
| 20260501185007 | 60 | 62 | 1.0 | 3.0 | 0.00 | 0.00 | 0.00 | 63 | 1020.4 |
| 20260501184003 | 60 | 12 | 0.0 | 1.0 | 0.00 | 0.00 | 0.00 | 62 | 1020.4 |
| 20260501183509 | 60 | 12 | 0.0 | 5.0 | 0.00 | 0.00 | 0.00 | 62 | 1020.5 |
| 20260501183020 | 60 | 12 | 0.0 | 5.0 | 0.00 | 0.00 | 0.00 | 62 | 1020.5 |
| 20260501182507 | 61 | 348 | 2.0 | 6.0 | 0.00 | 0.00 | 0.00 | 61 | 1020.5 |
| 20260501182011 | 62 | 338 | 2.0 | 7.0 | 0.00 | 0.00 | 0.00 | 59 | 1020.5 |
| 20260501181511 | 63 | 343 | 2.0 | 8.0 | 0.00 | 0.00 | 0.00 | 57 | 1020.5 |
| 20260501181007 | 63 | 60 | 2.0 | 8.0 | 0.00 | 0.00 | 0.00 | 57 | 1020.5 |
| 20260501180508 | 63 | 87 | 1.0 | 8.0 | 0.00 | 0.00 | 0.00 | 57 | 1020.5 |